Regional Weather Roundup
Issued by NWS Charleston, WV

Home | Current Version | Previous Version | Graphics & Text | Print | Product List | Glossary On
Versions: 1 2 3 4 5 6 7 8 9 10 11 12 13 14 15 16 17 18 19 20 21 22 23 24 25 26 27 28 29 30 31 32 33 34 35 36 37 38 39 40 41 42 43 44 45 46 47 48 49 50
000
ASUS41 KRLX 101110
RWRRLX
West Virginia Regional Weather Roundup
National Weather Service Charleston WV
700 AM EDT THU JUL 10 2014

Note: "fair" indicates few or no clouds below 12,000 feet with no
significant weather and/or obstructions to visibility.

WVZ003-101200-
Northern Panhandle of West Virginia

CITY           SKY/WX    TMP DP  RH WIND       PRES   REMARKS
WHEELING       CLOUDY    61  59  93 CALM      30.08R
$$

WVZ009-101200-
Northwest West Virginia

CITY           SKY/WX    TMP DP  RH WIND       PRES   REMARKS
PARKERSBURG    MOCLDY    61  60  97 CALM      30.09R FOG
$$

WVZ006-101200-
Western West Virginia

CITY           SKY/WX    TMP DP  RH WIND       PRES   REMARKS
HUNTINGTON     CLEAR     61  61 100 CALM      30.05R
$$

WVZ015-101200-
West Central West Virginia

CITY           SKY/WX    TMP DP  RH WIND       PRES   REMARKS
CHARLESTON     MOCLDY    67  67 100 CALM      30.07R FOG
$$

WVZ031-101200-
North Central West Virginia

CITY           SKY/WX    TMP DP  RH WIND       PRES   REMARKS
CLARKSBURG     PTCLDY    61  59  93 CALM      30.08R
MORGANTOWN     CLEAR     62  59  90 CALM      30.09R
$$

WVZ035-042-045-101200-
South Central West Virginia

CITY           SKY/WX    TMP DP  RH WIND       PRES   REMARKS
BECKLEY        CLEAR     61  60  97 CALM      30.14R FOG
BLUEFIELD      CLEAR     64  60  87 W3        30.15R
LEWISBURG      FOG       59  58  94 NE3       30.13R VSB 1/4
$$

WVZ047-101200-
Northern Mountains of West Virginia

CITY           SKY/WX    TMP DP  RH WIND       PRES   REMARKS
ELKINS         FOG       58  56  93 CALM      30.14R VSB 3/4
$$

WVZ052-101200-
Eastern Panhandle of West Virginia

CITY           SKY/WX    TMP DP  RH WIND       PRES   REMARKS
MARTINSBURG    MOSUNNY   64  61  90 CALM      30.06R
PETERSBURG     CLEAR     58  55  88 CALM      30.10R FOG
$$


USA.gov is the U.S. government's official web portal to all federal, state and local government web resources and services.